Sauk Centre, MN

3:36 PM CST on December 10, 2016 (GMT -0600)
Sauk Centre

Weather History for KD39 - March, 2013

Change the Weather History Date:

Friday, March 29, 2013

  Actual Average (KGHW) Record (KGHW)
Temperature  
Mean Temperature 36 °F -  
Max Temperature 41 °F 45 °F 78 °F (1986)
Min Temperature 30 °F 23 °F -56 °F (1998)
Degree Days  
Heating Degree Days 30    
Moisture  
Dew Point 31 °F    
Average Humidity 85    
Maximum Humidity 93    
Minimum Humidity 70    
Precipitation  
Precipitation 0.00 in - - ()
Sea Level Pressure  
Sea Level Pressure 30.15 in    
Wind  
Wind Speed 7 mph (ESE)    
Max Wind Speed 12 mph    
Max Gust Speed -    
Visibility 9 miles    
Events Rain    
Averages and records for this station are not official NWS values.
T = Trace of Precipitation, MM = Missing Value Source: NWS Daily Summary

Daily Weather History Graph

Daily Weather History Graph

Search for Another Location

Airport or City:

Trip Planner

Search our weather history database for the weather conditions in past years. The results will help you decide how hot, cold, wet, or windy it might be!

Date:

Astronomy

Mar. 29, 2013 Rise Set
Actual Time 7:05 AM CDT 7:44 PM CDT
Civil Twilight 6:35 AM CDT 8:14 PM CDT
Nautical Twilight 5:59 AM CDT 8:50 PM CDT
Astronomical Twilight 5:22 AM CDT 9:27 PM CDT
Moon 10:56 PM CDT (3/29) 8:05 AM CDT (3/29)
Length of Visible Light 13h 39m
Length of Day
12h 39m
Waning Gibbous, 93% of the Moon is Illuminated
Mar 29
Waning Gibbous
Apr 2
Last Quarter
Apr 10
New
Apr 18
First Quarter
Apr 25
Full

Hourly Weather History & Observations

Time (CDT) Temp. Windchill Dew Point Humidity Pressure Visibility Wind Dir Wind Speed Gust Speed Precip Events Conditions
12:15 AM 33.8 °F 26.4 °F 26.6 °F 75% 30.23 in 10.0 mi SE 9.2 mph - N/A   Overcast
12:35 AM 32.0 °F 24.8 °F 26.6 °F 80% 30.23 in 10.0 mi SE 8.1 mph - N/A   Overcast
12:55 AM 32.0 °F 24.8 °F 26.6 °F 80% 30.23 in 10.0 mi ESE 8.1 mph - N/A   Scattered Clouds
1:15 AM 32.0 °F 25.6 °F 26.6 °F 80% 30.24 in 10.0 mi ESE 6.9 mph - N/A   Mostly Cloudy
1:35 AM 32.0 °F 25.6 °F 28.4 °F 87% 30.24 in 10.0 mi ESE 6.9 mph - N/A   Overcast
1:55 AM 32.0 °F 25.6 °F 28.4 °F 87% 30.24 in 10.0 mi ESE 6.9 mph - N/A   Overcast
2:15 AM 32.0 °F 26.4 °F 28.4 °F 87% 30.24 in 10.0 mi ESE 5.8 mph - N/A   Overcast
2:35 AM 32.0 °F 26.4 °F 28.4 °F 87% 30.24 in 10.0 mi ESE 5.8 mph - N/A   Overcast
2:55 AM 32.0 °F 25.6 °F 28.4 °F 87% 30.23 in 10.0 mi ESE 6.9 mph - N/A   Overcast
3:15 AM 30.2 °F 23.4 °F 26.6 °F 86% 30.23 in 10.0 mi ESE 6.9 mph - N/A   Scattered Clouds
3:35 AM 30.2 °F 23.4 °F 26.6 °F 86% 30.22 in 10.0 mi ESE 6.9 mph - N/A   Mostly Cloudy
3:55 AM 32.0 °F 26.4 °F 28.4 °F 87% 30.22 in 10.0 mi ESE 5.8 mph - N/A   Overcast
4:15 AM 30.2 °F 24.3 °F 26.6 °F 86% 30.22 in 10.0 mi ESE 5.8 mph - N/A   Overcast
4:35 AM 30.2 °F 24.3 °F 28.4 °F 93% 30.21 in 10.0 mi ESE 5.8 mph - N/A   Overcast
4:55 AM 30.2 °F 25.4 °F 28.4 °F 93% 30.21 in 10.0 mi ESE 4.6 mph - N/A   Overcast
5:15 AM 30.2 °F 25.4 °F 28.4 °F 93% 30.20 in 10.0 mi ESE 4.6 mph - N/A   Overcast
5:35 AM 30.2 °F 25.4 °F 28.4 °F 93% 30.20 in 10.0 mi SE 4.6 mph - N/A   Overcast
5:55 AM 30.2 °F 26.7 °F 28.4 °F 93% 30.21 in 10.0 mi ESE 3.5 mph - N/A   Overcast
6:15 AM 30.2 °F 25.4 °F 28.4 °F 93% 30.20 in 10.0 mi SE 4.6 mph - N/A   Overcast
6:35 AM 30.2 °F 26.7 °F 28.4 °F 93% 30.21 in 10.0 mi SE 3.5 mph - N/A   Overcast
6:55 AM 30.2 °F 26.7 °F 28.4 °F 93% 30.21 in 10.0 mi SE 3.5 mph - N/A   Overcast
7:15 AM 30.2 °F 26.7 °F 28.4 °F 93% 30.20 in 5.0 mi ESE 3.5 mph - N/A   Overcast
7:35 AM 30.2 °F 26.7 °F 28.4 °F 93% 30.21 in 7.0 mi ESE 3.5 mph - N/A   Overcast
7:55 AM 30.2 °F 25.4 °F 28.4 °F 93% 30.21 in 7.0 mi East 4.6 mph - N/A   Overcast
8:15 AM 30.2 °F - 28.4 °F 93% 30.21 in 7.0 mi Calm Calm - N/A   Mostly Cloudy
8:35 AM 32.0 °F 27.5 °F 28.4 °F 87% 30.21 in 7.0 mi ESE 4.6 mph - N/A   Mostly Cloudy
8:55 AM 32.0 °F 28.7 °F 30.2 °F 93% 30.21 in 7.0 mi ESE 3.5 mph - N/A   Overcast
9:15 AM 32.0 °F 28.7 °F 30.2 °F 93% 30.21 in 7.0 mi ESE 3.5 mph - N/A   Mostly Cloudy
9:35 AM 32.0 °F 28.7 °F 30.2 °F 93% 30.21 in 7.0 mi SE 3.5 mph - N/A   Scattered Clouds
9:55 AM 33.8 °F 29.6 °F 30.2 °F 87% 30.20 in 7.0 mi SE 4.6 mph - N/A   Scattered Clouds
10:15 AM 33.8 °F 27.7 °F 32.0 °F 93% 30.19 in 10.0 mi SE 6.9 mph - N/A   Mostly Cloudy
10:35 AM 33.8 °F 28.6 °F 32.0 °F 93% 30.19 in 10.0 mi SE 5.8 mph - N/A   Overcast
10:55 AM 35.6 °F 31.7 °F 32.0 °F 87% 30.19 in 10.0 mi SE 4.6 mph - N/A   Overcast
11:15 AM 35.6 °F 29.9 °F 32.0 °F 87% 30.19 in 10.0 mi SE 6.9 mph - N/A   Overcast
11:35 AM 35.6 °F 30.7 °F 32.0 °F 87% 30.19 in 10.0 mi SE 5.8 mph - N/A   Overcast
11:55 AM 35.6 °F 29.9 °F 32.0 °F 87% 30.19 in 7.0 mi SE 6.9 mph - N/A   Overcast
12:15 PM 35.6 °F 29.9 °F 32.0 °F 87% 30.18 in 10.0 mi SE 6.9 mph - N/A   Overcast
12:35 PM 37.4 °F 30.8 °F 32.0 °F 81% 30.18 in 10.0 mi SSE 9.2 mph - N/A   Overcast
12:55 PM 37.4 °F 31.4 °F 32.0 °F 81% 30.17 in 10.0 mi SSE 8.1 mph - N/A   Overcast
1:15 PM 37.4 °F 30.3 °F 32.0 °F 81% 30.17 in 10.0 mi SE 10.4 mph - N/A   Mostly Cloudy
1:35 PM 37.4 °F 30.8 °F 32.0 °F 81% 30.16 in 10.0 mi SE 9.2 mph - N/A   Scattered Clouds
1:55 PM 37.4 °F 32.1 °F 32.0 °F 81% 30.15 in 10.0 mi ESE 6.9 mph - N/A   Mostly Cloudy
2:15 PM 39.2 °F 34.2 °F 32.0 °F 75% 30.14 in 10.0 mi ESE 6.9 mph - N/A   Mostly Cloudy
2:35 PM 39.2 °F 33.6 °F 32.0 °F 75% 30.13 in 10.0 mi ESE 8.1 mph - N/A   Unknown
2:55 PM 39.2 °F 33.0 °F 32.0 °F 75% 30.13 in 10.0 mi ESE 9.2 mph - N/A   Unknown
3:15 PM 41.0 °F 34.7 °F 32.0 °F 70% 30.13 in 10.0 mi SE 10.4 mph - N/A   Unknown
3:35 PM 41.0 °F 34.3 °F 32.0 °F 70% 30.11 in 10.0 mi SE 11.5 mph - N/A   Unknown
3:55 PM 41.0 °F 34.7 °F 32.0 °F 70% 30.11 in 10.0 mi SE 10.4 mph - N/A   Unknown
4:15 PM 39.2 °F 33.6 °F 32.0 °F 75% 30.10 in 10.0 mi SE 8.1 mph - N/A   Unknown
4:35 PM 41.0 °F 35.2 °F 32.0 °F 70% 30.09 in 10.0 mi SE 9.2 mph - N/A   Unknown
4:55 PM 39.2 °F 34.2 °F 32.0 °F 75% 30.09 in 10.0 mi ESE 6.9 mph - N/A   Unknown
5:15 PM 41.0 °F 35.2 °F 32.0 °F 70% 30.08 in 10.0 mi ESE 9.2 mph - N/A   Unknown
5:35 PM 39.2 °F 33.0 °F 32.0 °F 75% 30.08 in 10.0 mi ESE 9.2 mph - N/A   Unknown
5:55 PM 39.2 °F 34.2 °F 32.0 °F 75% 30.08 in 10.0 mi ESE 6.9 mph - N/A   Unknown
6:15 PM 37.4 °F 31.4 °F 32.0 °F 81% 30.07 in 10.0 mi ESE 8.1 mph - N/A   Unknown
6:35 PM 37.4 °F 32.8 °F 32.0 °F 81% 30.07 in 10.0 mi ESE 5.8 mph - N/A   Unknown
6:55 PM 37.4 °F 34.9 °F 32.0 °F 81% 30.08 in 10.0 mi East 3.5 mph - N/A   Unknown
7:15 PM 39.2 °F 37.0 °F 33.8 °F 81% 30.07 in 10.0 mi ESE 3.5 mph - N/A   Unknown
7:35 PM 37.4 °F 33.8 °F 32.0 °F 81% 30.07 in 10.0 mi SE 4.6 mph - N/A   Unknown
7:55 PM 37.4 °F 32.1 °F 33.8 °F 87% 30.06 in 10.0 mi ESE 6.9 mph - N/A Rain Light Rain
8:15 PM 37.4 °F 33.8 °F 33.8 °F 87% 30.05 in 10.0 mi East 4.6 mph - N/A Rain Rain
8:55 PM 37.4 °F 32.8 °F 33.8 °F 87% 30.04 in 10.0 mi ESE 5.8 mph - N/A   Light Drizzle
9:15 PM 37.4 °F 32.1 °F 35.6 °F 93% 30.04 in 7.0 mi ESE 6.9 mph - N/A   Drizzle
9:35 PM 37.4 °F 33.8 °F 35.6 °F 93% 30.04 in 7.0 mi East 4.6 mph - N/A   Drizzle
9:55 PM 37.4 °F 32.1 °F 35.6 °F 93% 30.03 in 7.0 mi East 6.9 mph - N/A   Unknown
10:15 PM 37.4 °F 32.1 °F 35.6 °F 93% 30.02 in 7.0 mi East 6.9 mph - N/A   Unknown
10:35 PM 37.4 °F 30.8 °F 33.8 °F 87% 30.02 in 7.0 mi ESE 9.2 mph - N/A   Unknown
10:55 PM 37.4 °F 29.8 °F 33.8 °F 87% 30.00 in 7.0 mi ESE 11.5 mph - N/A   Unknown
11:15 PM 35.6 °F 29.2 °F 33.8 °F 93% 29.99 in 10.0 mi ESE 8.1 mph - N/A   Overcast
11:35 PM 35.6 °F 28.6 °F 33.8 °F 93% 29.98 in 10.0 mi SE 9.2 mph - N/A   Overcast
11:55 PM 39.2 °F 32.5 °F 35.6 °F 87% 29.97 in 10.0 mi SE 10.4 mph - N/A   Mostly Cloudy